Simultaneous Nadir Overpasses (SNOs) Predictions

Prediction of SNOs between NOAA-20 and METOP-B Satellite Orbit:

Table of predicted SNOs for the next 14.0 days since TLE Epoch: 5/23/2020
Index Date (NOAA-20) Time (NOAA-20) Lat,Lon (NOAA-20) SZA (NOAA-20 ) Date (METOP-B) Time (METOP-B) Lat,Lon (METOP-B) SZA (METOP-B ) Distance(km) Time Diff (sec)
1 06/06/2020 10:41:12 73.44, 10.10 50.88 06/06/2020 10:42:19 73.40, 12.69 50.71 82.52 67
2 06/06/2020 11:31:55 -73.37, 177.56 129.20 06/06/2020 11:33:03 -73.32, 179.85 129.37 73.06 68
3 06/06/2020 12:22:36 73.14, -14.62 50.55 06/06/2020 12:23:47 73.07, -13.36 50.40 41.52 71
4 06/06/2020 13:13:19 -73.08, 152.84 129.53 06/06/2020 13:14:31 -73.00, 153.80 129.67 32.66 72
5 06/06/2020 14:04:00 72.85, -39.36 50.22 06/06/2020 14:05:13 72.85, -39.18 50.20 6.01 73
6 06/06/2020 14:54:43 -72.78, 128.09 129.86 06/06/2020 14:55:57 -72.77, 127.99 129.88 3.43 74
7 06/06/2020 15:45:29 72.80, -64.64 50.16 06/06/2020 15:46:36 72.77, -64.67 50.12 3.30 67
8 06/06/2020 16:36:13 -72.79, 102.70 129.86 06/06/2020 16:37:18 -72.80, 102.71 129.86 1.38 65
9 06/06/2020 17:26:59 72.81, -90.03 50.16 06/06/2020 17:27:57 72.80, -89.95 50.14 2.72 58




NCC Satellite Simultaneous Nadir Overpasses (SNOs) Prediction Service
